Tracking 31027 objects as of 19-Jul-2025
HD Live streaming from Space Station
objects crossing your sky now

STARLINK-30224

Track STARLINK-30224 now!
10-day predictions
STARLINK-30224 is classified as:


NORAD ID: 57416
Int'l Code: 2023-102N
Perigee: 565.6 km
Apogee: 566.9 km
Inclination: 43.0 °
Period: 95.8 minutes
Semi major axis: 6937 km
RCS: Unknown
Launch date: July 20, 2023
Source: United States (US)
Launch site: AIR FORCE WESTERN TEST RANGE (AFWTR)
Your satellite tracking list
COSMOS 830
Track 1 satellite(s)




NASA's NSSDC Master Catalog

Two Line Element Set (TLE):
1 57416U 23102N   25199.38254275  .00000592  00000-0  58873-4 0  9994
2 57416  43.0041  81.7648 0000927 269.7777  90.2959 15.02536158110994
Source of the keplerian elements: AFSPC